Retour au catalogue

STARLINK-2586

ActifCommunicationsVLEO
NORAD 48390·PAYLOAD·🇺🇸 United States

Lancé May 4, 2021 depuis Cape Canaveral Space Force Station

Loading…

Prochains Passages (prochaines 24 heures)

TLE

FraisSource: CelesTrak SupGP

Époque: Sep 14, 2026, 20:43 UTC

1 48390C 21038AP  26257.86368056 -.00017789  00000+0 -57212-3 0  2572
2 48390  53.1569 172.2852 0001409  94.5027 301.1790 15.31706521    16

Suivez STARLINK-2586 en temps réel avec AllMySat

Download on the App Store